Search for airport 
image banner adimage banner ad
image banner ad

DAOO - Oran/Ahmed Benbella

Located in Oran, Algeria

ICAO - DAOO, IATA - ORN

Data provided by Airmate  

General information

Coordinates: N35°37'38" W0°36'41"
Elevation is 298 feet MSL.
 
Rated:
View ratings:
[VIEW]
View others Airports in Oran Province

Operational data

Open for public use
Current time UTC:
Current local time:
Weather
METAR: DAOO 040700Z 22012KT 9999 BKN026 13/08 Q1005
TAF: TAF DAOO 040500Z 0406/0506 22024G43KT 9999 SCT026 BECMG 0409/0412 22018KT TEMPO 0416/0421 6000 TSSHRA FEW023CB BKN026 OVC100 BECMG 0422/0424 23024G41KT 9999 FEW026 SCT100 TEMPO 0501/0506 8000 RA SCT026 SCT100 BKN233
View NOTAMs / SUP AIP / TFR affecting this airport [VIEW]
Communications frequencies: [VIEW]

Runways:

RWY identifierQFULength (ft)Width (ft)SurfaceLDA (ft)
07R67°9843148
25L247°9843148
07L67°11811148
25R247°11811148

Airport contact information

Address: Oran Algeria

Satellite view of DAOO